Time,TemperatureF,DewpointF,PressureIn,WindDirection,WindDirectionDegrees,WindSpeedMPH,WindSpeedGustMPH,Humidity,HourlyPrecipIn,Conditions,Clouds,dailyrainin,SoftwareType,DateUTC
2013-06-06 00:03:00,58.0,53.0,30.03,ENE,66,6.0,0.0,82,0.03,,,-99.99,,2013-06-06 04:03:00,
2013-06-06 00:13:00,58.0,53.0,30.03,ENE,66,6.0,0.0,82,0.03,,,-99.99,,2013-06-06 04:13:00,
2013-06-06 00:23:00,57.0,52.0,30.03,ESE,105,7.0,0.0,83,0.03,,,-99.99,,2013-06-06 04:23:00,
2013-06-06 00:33:00,57.0,52.0,30.02,East,100,6.0,0.0,84,0.03,,,-99.99,,2013-06-06 04:33:00,
2013-06-06 00:42:00,57.0,52.0,30.02,East,100,6.0,0.0,84,0.03,,,-99.99,,2013-06-06 04:42:00,
2013-06-06 00:53:00,57.0,52.0,30.02,East,100,6.0,0.0,84,0.03,,,-99.99,,2013-06-06 04:53:00,
2013-06-06 01:02:00,57.0,53.0,30.02,ENE,72,6.0,0.0,86,0.03,,,-99.99,,2013-06-06 05:02:00,
2013-06-06 01:12:00,57.0,53.0,30.02,ENE,72,6.0,0.0,86,0.03,,,-99.99,,2013-06-06 05:12:00,
2013-06-06 01:22:00,56.0,52.0,30.02,ENE,73,7.0,0.0,87,0.03,,,-99.99,,2013-06-06 05:22:00,
2013-06-06 01:32:00,56.0,53.0,30.02,ENE,59,6.0,0.0,89,0.03,,,-99.99,,2013-06-06 05:32:00,
2013-06-06 01:42:00,56.0,53.0,30.02,ENE,59,6.0,0.0,89,0.03,,,-99.99,,2013-06-06 05:42:00,
2013-06-06 01:52:00,56.0,53.0,30.02,East,91,5.0,0.0,89,0.03,,,-99.99,,2013-06-06 05:52:00,
2013-06-06 02:02:00,56.0,53.0,30.01,East,83,7.0,0.0,90,0.03,,,-99.99,,2013-06-06 06:02:00,
2013-06-06 02:12:00,56.0,53.0,30.01,East,83,7.0,0.0,90,0.03,,,-99.99,,2013-06-06 06:12:00,
2013-06-06 02:22:00,56.0,53.0,30.01,East,94,7.0,0.0,90,0.03,,,-99.99,,2013-06-06 06:22:00,
2013-06-06 02:33:00,56.0,53.0,30.01,East,98,5.0,0.0,90,0.03,,,-99.99,,2013-06-06 06:33:00,
2013-06-06 02:42:00,56.0,53.0,30.01,East,98,5.0,0.0,90,0.03,,,-99.99,,2013-06-06 06:42:00,
2013-06-06 02:52:00,56.0,53.0,30.01,SSE,148,6.0,0.0,90,0.03,,,-99.99,,2013-06-06 06:52:00,
2013-06-06 03:02:00,55.0,52.0,29.99,East,84,7.0,0.0,90,0.03,,,-99.99,,2013-06-06 07:02:00,
2013-06-06 03:12:00,55.0,52.0,29.99,East,84,7.0,0.0,90,0.03,,,-99.99,,2013-06-06 07:12:00,
2013-06-06 03:22:00,55.0,52.0,29.98,East,84,9.0,0.0,90,0.03,,,-99.99,,2013-06-06 07:22:00,
2013-06-06 03:32:00,55.0,52.0,29.98,ENE,63,7.0,0.0,89,0.03,,,-99.99,,2013-06-06 07:32:00,
2013-06-06 03:42:00,55.0,52.0,29.98,ENE,63,7.0,0.0,89,0.03,,,-99.99,,2013-06-06 07:42:00,
2013-06-06 03:52:00,55.0,52.0,29.98,East,87,6.0,0.0,90,0.03,,,-99.99,,2013-06-06 07:52:00,
2013-06-06 04:02:00,55.0,52.0,29.97,ENE,59,8.0,0.0,90,0.03,,,-99.99,,2013-06-06 08:02:00,
2013-06-06 04:12:00,55.0,52.0,29.97,ENE,59,8.0,0.0,90,0.03,,,-99.99,,2013-06-06 08:12:00,
2013-06-06 04:22:00,55.0,52.0,29.96,ENE,69,8.0,0.0,90,0.03,,,-99.99,,2013-06-06 08:22:00,
2013-06-06 04:32:00,55.0,52.0,29.97,ENE,69,6.0,0.0,91,0.03,,,-99.99,,2013-06-06 08:32:00,
2013-06-06 04:42:00,55.0,52.0,29.97,ENE,77,7.0,0.0,91,0.03,,,-99.99,,2013-06-06 08:42:00,
2013-06-06 04:52:00,55.0,52.0,29.97,ENE,77,7.0,0.0,91,0.03,,,-99.99,,2013-06-06 08:52:00,
2013-06-06 05:02:00,55.0,52.0,29.96,NE,51,7.0,0.0,91,0.03,,,-99.99,,2013-06-06 09:02:00,
2013-06-06 05:12:00,55.0,52.0,29.96,NE,51,7.0,0.0,91,0.03,,,-99.99,,2013-06-06 09:12:00,
2013-06-06 05:22:00,55.0,52.0,29.96,ENE,66,7.0,0.0,91,0.03,,,-99.99,,2013-06-06 09:22:00,
2013-06-06 05:33:00,54.0,52.0,29.96,ENE,76,7.0,0.0,92,0.03,,,-99.99,,2013-06-06 09:33:00,
2013-06-06 05:43:00,54.0,52.0,29.96,ENE,76,7.0,0.0,92,0.03,,,-99.99,,2013-06-06 09:43:00,
2013-06-06 05:53:00,54.0,52.0,29.95,NE,51,7.0,0.0,92,0.03,,,-99.99,,2013-06-06 09:53:00,
2013-06-06 06:03:00,54.0,52.0,29.95,ENE,73,6.0,0.0,92,0.03,,,-99.99,,2013-06-06 10:03:00,
2013-06-06 06:12:00,54.0,52.0,29.95,ENE,73,6.0,0.0,92,0.03,,,-99.99,,2013-06-06 10:12:00,
2013-06-06 06:23:00,54.0,52.0,29.95,ENE,68,7.0,0.0,92,0.03,,,-99.99,,2013-06-06 10:23:00,
2013-06-06 06:33:00,55.0,53.0,29.95,ENE,58,9.0,0.0,93,0.03,,,-99.99,,2013-06-06 10:33:00,
2013-06-06 06:42:00,55.0,53.0,29.95,ENE,58,9.0,0.0,93,0.03,,,-99.99,,2013-06-06 10:42:00,
2013-06-06 06:53:00,55.0,53.0,29.95,ENE,59,8.0,0.0,93,0.03,,,-99.99,,2013-06-06 10:53:00,
2013-06-06 07:02:00,55.0,53.0,29.95,ESE,121,7.0,0.0,93,0.03,,,-99.99,,2013-06-06 11:02:00,
2013-06-06 07:12:00,55.0,53.0,29.95,ESE,121,7.0,0.0,93,0.03,,,-99.99,,2013-06-06 11:12:00,
2013-06-06 07:23:00,55.0,53.0,29.95,NE,56,8.0,0.0,92,0.03,,,-99.99,,2013-06-06 11:23:00,
2013-06-06 07:32:00,55.0,53.0,29.95,ENE,59,8.0,0.0,92,0.03,,,-99.99,,2013-06-06 11:32:00,
2013-06-06 07:42:00,55.0,53.0,29.95,ENE,59,8.0,0.0,92,0.03,,,-99.99,,2013-06-06 11:42:00,
2013-06-06 07:52:00,55.0,52.0,29.95,NE,45,8.0,0.0,91,0.03,,,-99.99,,2013-06-06 11:52:00,
2013-06-06 08:03:00,55.0,52.0,29.95,ENE,68,9.0,0.0,91,0.03,,,-99.99,,2013-06-06 12:03:00,
2013-06-06 08:13:00,55.0,52.0,29.95,ENE,68,9.0,0.0,91,0.03,,,-99.99,,2013-06-06 12:13:00,
2013-06-06 08:23:00,55.0,53.0,29.94,NE,51,8.0,0.0,92,0.03,,,-99.99,,2013-06-06 12:23:00,
2013-06-06 08:33:00,56.0,53.0,29.95,ENE,63,7.0,0.0,91,0.03,,,-99.99,,2013-06-06 12:33:00,
2013-06-06 08:43:00,56.0,53.0,29.95,ENE,63,7.0,0.0,91,0.03,,,-99.99,,2013-06-06 12:43:00,
2013-06-06 08:52:00,56.0,53.0,29.94,NE,51,9.0,0.0,90,0.03,,,-99.99,,2013-06-06 12:52:00,
2013-06-06 09:03:00,56.0,53.0,29.94,East,82,8.0,0.0,90,0.03,,,-99.99,,2013-06-06 13:03:00,
2013-06-06 09:13:00,56.0,53.0,29.94,East,82,8.0,0.0,90,0.03,,,-99.99,,2013-06-06 13:13:00,
2013-06-06 09:23:00,56.0,53.0,29.94,ENE,68,7.0,0.0,89,0.03,,,-99.99,,2013-06-06 13:23:00,
2013-06-06 09:33:00,56.0,53.0,29.95,ESE,111,6.0,0.0,90,0.03,,,-99.99,,2013-06-06 13:33:00,
2013-06-06 09:43:00,56.0,53.0,29.95,ESE,111,6.0,0.0,90,0.03,,,-99.99,,2013-06-06 13:43:00,
2013-06-06 09:53:00,56.0,53.0,29.96,ENE,59,5.0,0.0,91,0.03,,,-99.99,,2013-06-06 13:53:00,
2013-06-06 10:03:00,56.0,54.0,29.96,ESE,122,3.0,0.0,92,0.03,,,-99.99,,2013-06-06 14:03:00,
2013-06-06 10:13:00,56.0,54.0,29.96,ESE,122,3.0,0.0,92,0.03,,,-99.99,,2013-06-06 14:13:00,
2013-06-06 10:23:00,55.0,53.0,29.96,ESE,122,0.0,0.0,94,0.03,,,-99.99,,2013-06-06 14:23:00,
2013-06-06 10:33:00,55.0,54.0,29.96,ESE,122,0.0,0.0,96,0.03,,,-99.99,,2013-06-06 14:33:00,
2013-06-06 10:43:00,55.0,54.0,29.96,ESE,122,0.0,0.0,96,0.03,,,-99.99,,2013-06-06 14:43:00,
2013-06-06 10:53:00,55.0,54.0,29.96,East,82,0.0,0.0,97,0.03,,,-99.99,,2013-06-06 14:53:00,
2013-06-06 11:03:00,56.0,55.0,29.96,ENE,63,4.0,0.0,97,0.03,,,-99.99,,2013-06-06 15:03:00,
2013-06-06 11:13:00,56.0,55.0,29.96,ENE,63,4.0,0.0,97,0.03,,,-99.99,,2013-06-06 15:13:00,
2013-06-06 11:23:00,56.0,55.0,29.96,ENE,60,6.0,0.0,98,0.03,,,-99.99,,2013-06-06 15:23:00,
2013-06-06 11:33:00,56.0,55.0,29.95,ESE,120,5.0,0.0,98,0.03,,,-99.99,,2013-06-06 15:33:00,
2013-06-06 11:43:00,56.0,55.0,29.95,ESE,120,5.0,0.0,98,0.03,,,-99.99,,2013-06-06 15:43:00,
2013-06-06 11:53:00,56.0,56.0,29.96,SE,132,5.0,0.0,99,0.03,,,-99.99,,2013-06-06 15:53:00,
2013-06-06 12:03:00,56.0,56.0,29.96,ENE,65,6.0,0.0,99,0.03,,,-99.99,,2013-06-06 16:03:00,
2013-06-06 12:13:00,56.0,56.0,29.96,ENE,65,6.0,0.0,99,0.03,,,-99.99,,2013-06-06 16:13:00,
2013-06-06 12:23:00,57.0,57.0,29.96,NE,38,9.0,0.0,99,0.03,,,-99.99,,2013-06-06 16:23:00,
2013-06-06 12:33:00,57.0,56.0,29.96,ENE,59,9.0,0.0,98,0.03,,,-99.99,,2013-06-06 16:33:00,
2013-06-06 12:44:00,57.0,56.0,29.96,ENE,59,9.0,0.0,98,0.03,,,-99.99,,2013-06-06 16:44:00,
2013-06-06 12:53:00,58.0,56.0,29.95,NE,35,11.0,0.0,94,0.03,,,-99.99,,2013-06-06 16:53:00,
2013-06-06 13:03:00,58.0,56.0,29.96,NE,44,8.0,0.0,93,0.03,,,-99.99,,2013-06-06 17:03:00,
2013-06-06 13:13:00,58.0,56.0,29.96,NE,44,8.0,0.0,93,0.03,,,-99.99,,2013-06-06 17:13:00,
2013-06-06 13:23:00,60.0,55.0,29.96,NNE,20,10.0,0.0,85,0.03,,,-99.99,,2013-06-06 17:23:00,
2013-06-06 13:33:00,61.0,55.0,29.95,North,1,8.0,0.0,81,0.03,,,-99.99,,2013-06-06 17:33:00,
2013-06-06 13:43:00,61.0,55.0,29.95,North,1,8.0,0.0,81,0.03,,,-99.99,,2013-06-06 17:43:00,
2013-06-06 13:53:00,61.0,54.0,29.94,NE,35,11.0,0.0,78,0.03,,,-99.99,,2013-06-06 17:53:00,
2013-06-06 14:03:00,62.0,51.0,29.94,ENE,69,10.0,0.0,68,0.03,,,-99.99,,2013-06-06 18:03:00,
2013-06-06 14:13:00,62.0,51.0,29.94,ENE,69,10.0,0.0,68,0.03,,,-99.99,,2013-06-06 18:13:00,
2013-06-06 14:23:00,63.0,52.0,29.94,North,350,9.0,0.0,67,0.03,,,-99.99,,2013-06-06 18:23:00,
2013-06-06 14:33:00,63.0,51.0,29.94,NE,51,10.0,0.0,65,0.03,,,-99.99,,2013-06-06 18:33:00,
2013-06-06 14:43:00,63.0,51.0,29.94,NE,51,10.0,0.0,65,0.03,,,-99.99,,2013-06-06 18:43:00,
2013-06-06 14:53:00,63.0,51.0,29.94,NE,51,9.0,0.0,65,0.03,,,-99.99,,2013-06-06 18:53:00,
2013-06-06 15:03:00,63.0,51.0,29.93,NE,42,12.0,0.0,64,0.03,,,-99.99,,2013-06-06 19:03:00,
2013-06-06 15:13:00,63.0,51.0,29.93,NE,42,12.0,0.0,64,0.03,,,-99.99,,2013-06-06 19:13:00,
2013-06-06 15:23:00,63.0,49.0,29.93,NE,49,12.0,0.0,60,0.03,,,-99.99,,2013-06-06 19:23:00,
2013-06-06 15:33:00,63.0,50.0,29.93,NE,53,9.0,0.0,63,0.03,,,-99.99,,2013-06-06 19:33:00,
2013-06-06 15:43:00,63.0,50.0,29.93,NE,53,9.0,0.0,63,0.03,,,-99.99,,2013-06-06 19:43:00,
2013-06-06 15:53:00,64.0,50.0,29.93,NE,35,11.0,0.0,61,0.03,,,-99.99,,2013-06-06 19:53:00,
2013-06-06 16:03:00,64.0,50.0,29.93,NE,35,11.0,0.0,61,0.03,,,-99.99,,2013-06-06 20:03:00,
2013-06-06 16:13:00,64.0,50.0,29.93,NE,35,11.0,0.0,61,0.03,,,-99.99,,2013-06-06 20:13:00,
2013-06-06 16:23:00,65.0,49.0,29.93,NE,42,12.0,0.0,56,0.03,,,-99.99,,2013-06-06 20:23:00,
2013-06-06 16:33:00,66.0,49.0,29.92,NE,42,12.0,0.0,54,0.03,,,-99.99,,2013-06-06 20:33:00,
2013-06-06 16:43:00,66.0,49.0,29.92,NE,42,12.0,0.0,54,0.03,,,-99.99,,2013-06-06 20:43:00,
2013-06-06 16:53:00,66.0,47.0,29.93,ENE,70,10.0,0.0,50,0.03,,,-99.99,,2013-06-06 20:53:00,
2013-06-06 17:03:00,66.0,48.0,29.92,ENE,65,8.0,0.0,52,0.03,,,-99.99,,2013-06-06 21:03:00,
2013-06-06 17:13:00,66.0,48.0,29.92,ENE,65,8.0,0.0,52,0.03,,,-99.99,,2013-06-06 21:13:00,
2013-06-06 17:23:00,66.0,49.0,29.92,East,100,8.0,0.0,54,0.03,,,-99.99,,2013-06-06 21:23:00,
2013-06-06 17:33:00,66.0,48.0,29.92,East,90,9.0,0.0,53,0.03,,,-99.99,,2013-06-06 21:33:00,
2013-06-06 17:44:00,66.0,48.0,29.92,East,90,9.0,0.0,53,0.03,,,-99.99,,2013-06-06 21:44:00,
2013-06-06 17:53:00,66.0,48.0,29.92,East,90,9.0,0.0,53,0.03,,,-99.99,,2013-06-06 21:53:00,
2013-06-06 18:03:00,66.0,50.0,29.91,ESE,110,6.0,0.0,57,0.03,,,-99.99,,2013-06-06 22:03:00,
2013-06-06 18:13:00,66.0,50.0,29.91,ESE,110,6.0,0.0,57,0.03,,,-99.99,,2013-06-06 22:13:00,
2013-06-06 18:23:00,66.0,50.0,29.92,ENE,63,11.0,0.0,57,0.03,,,-99.99,,2013-06-06 22:23:00,
2013-06-06 18:33:00,66.0,51.0,29.91,East,83,8.0,0.0,58,0.03,,,-99.99,,2013-06-06 22:33:00,
2013-06-06 18:43:00,66.0,51.0,29.91,East,83,8.0,0.0,58,0.03,,,-99.99,,2013-06-06 22:43:00,
2013-06-06 18:53:00,66.0,51.0,29.91,ENE,75,8.0,0.0,59,0.03,,,-99.99,,2013-06-06 22:53:00,
2013-06-06 19:03:00,66.0,51.0,29.91,NE,52,7.0,0.0,58,0.03,,,-99.99,,2013-06-06 23:03:00,
2013-06-06 19:13:00,66.0,51.0,29.91,NE,52,7.0,0.0,58,0.03,,,-99.99,,2013-06-06 23:13:00,
2013-06-06 19:22:00,66.0,50.0,29.91,East,82,7.0,0.0,56,0.03,,,-99.99,,2013-06-06 23:22:00,
2013-06-06 19:33:00,66.0,49.0,29.91,East,83,7.0,0.0,55,0.03,,,-99.99,,2013-06-06 23:33:00,
2013-06-06 19:43:00,66.0,49.0,29.91,East,83,7.0,0.0,55,0.03,,,-99.99,,2013-06-06 23:43:00,
2013-06-06 19:52:00,65.0,48.0,29.91,ESE,118,8.0,0.0,55,0.03,,,-99.99,,2013-06-06 23:52:00,
2013-06-06 20:02:00,65.0,48.0,29.91,NE,55,11.0,0.0,54,0.03,,,-99.99,,2013-06-07 00:02:00,
2013-06-06 20:13:00,65.0,48.0,29.91,NE,55,11.0,0.0,54,0.03,,,-99.99,,2013-06-07 00:13:00,
2013-06-06 20:22:00,65.0,49.0,29.91,East,90,7.0,0.0,56,0.03,,,-99.99,,2013-06-07 00:22:00,
2013-06-06 20:32:00,65.0,49.0,29.92,East,100,8.0,0.0,56,0.03,,,-99.99,,2013-06-07 00:32:00,
2013-06-06 20:42:00,65.0,49.0,29.92,East,100,8.0,0.0,56,0.03,,,-99.99,,2013-06-07 00:42:00,
2013-06-06 20:52:00,64.0,48.0,29.92,ESE,121,7.0,0.0,57,0.03,,,-99.99,,2013-06-07 00:52:00,
2013-06-06 21:03:00,64.0,50.0,29.92,East,98,5.0,0.0,60,0.03,,,-99.99,,2013-06-07 01:03:00,
2013-06-06 21:12:00,64.0,50.0,29.92,East,98,5.0,0.0,60,0.03,,,-99.99,,2013-06-07 01:12:00,
2013-06-06 21:22:00,63.0,50.0,29.93,East,86,5.0,0.0,62,0.03,,,-99.99,,2013-06-07 01:22:00,
2013-06-06 21:32:00,63.0,51.0,29.93,ESE,115,6.0,0.0,66,0.03,,,-99.99,,2013-06-07 01:32:00,
2013-06-06 21:42:00,63.0,51.0,29.93,ESE,115,6.0,0.0,66,0.03,,,-99.99,,2013-06-07 01:42:00,
2013-06-06 21:52:00,62.0,52.0,29.92,SE,142,6.0,0.0,71,0.03,,,-99.99,,2013-06-07 01:52:00,
2013-06-06 22:02:00,61.0,52.0,29.93,SE,127,5.0,0.0,73,0.03,,,-99.99,,2013-06-07 02:02:00,
2013-06-06 22:12:00,61.0,52.0,29.93,SE,127,5.0,0.0,73,0.03,,,-99.99,,2013-06-07 02:12:00,
2013-06-06 22:22:00,61.0,53.0,29.93,East,83,5.0,0.0,75,0.03,,,-99.99,,2013-06-07 02:22:00,
2013-06-06 22:32:00,60.0,52.0,29.93,East,93,6.0,0.0,76,0.03,,,-99.99,,2013-06-07 02:32:00,
2013-06-06 22:42:00,60.0,52.0,29.93,East,93,6.0,0.0,76,0.03,,,-99.99,,2013-06-07 02:42:00,
2013-06-06 22:52:00,59.0,52.0,29.94,East,83,5.0,0.0,78,0.03,,,-99.99,,2013-06-07 02:52:00,
2013-06-06 23:02:00,58.0,52.0,29.94,East,100,4.0,0.0,80,0.03,,,-99.99,,2013-06-07 03:02:00,
2013-06-06 23:12:00,58.0,52.0,29.94,East,100,4.0,0.0,80,0.03,,,-99.99,,2013-06-07 03:12:00,
2013-06-06 23:22:00,58.0,53.0,29.94,East,82,1.0,0.0,82,0.03,,,-99.99,,2013-06-07 03:22:00,
2013-06-06 23:33:00,57.0,52.0,29.95,ESE,113,3.0,0.0,83,0.03,,,-99.99,,2013-06-07 03:33:00,
2013-06-06 23:43:00,57.0,52.0,29.95,ESE,113,3.0,0.0,83,0.03,,,-99.99,,2013-06-07 03:43:00,
2013-06-06 23:53:00,57.0,52.0,29.95,ESE,104,0.0,0.0,84,0.03,,,-99.99,,2013-06-07 03:53:00,